Showing default

LEGION 1, 59625

Orbit data source: Space-Track

LEGION 1, 59625 is a payload satellite owned by Maxar Intel (US) in SSO that was launched on Thu, 02 May 2024 UTC via an FALCON 9 launch vehicle from the Air Force Western Test Range (AFWTR). Payload-class satellites include a variety of spacecraft equipped with specific instruments for various scientific and technological missions. These include communications satellites like Starlink; space stations such as the ISS; scientific satellites like the Hubble; Earth observation satellites from companies like Planet Labs, Umbra, and HawkEye 360; GPS; miniature CubeSats for education and research; and military/defense satellites.

Loading next visibility...
Identifier
59625, 2024-081A
Orbit
SSO
Last TLE update
9 hours ago
Origin
Manufacturer
Maxar Space Inf
Mission
Operational spacecraft
Bus & Motor
LEGION, Unknown motor
Mass
~700 kg wet, 630 kg dry
Launch date (UTC)
2024-05-02 (1 year ago)
Launch vehicle
FALCON 9
Launch site
Air Force Western Test Range (AFWTR)
Object type
Payload
Rocket body
Debris
Shape & HBR
Unknown
Radar Cross Section
Large (>1 m²)

Expand to show TLE details & history

TLE from 9 hours ago
0 LEGION 1
1 59625U 24081A   25183.92903107  .00003429  00000-0  17745-3 0  9997
2 59625  97.5358 259.6874 0003125 349.6190  10.4978 15.16910127 64596
Epoch: 2025-07-02T22:17Z
TLE epoch observation values (Epoch: 2025-07-02T22:17:48.284Z)
Latitude
-0.00002°
Longitude
4.03313°
Altitude
516.15 km
Speed
7.607 km/s
True Right ascension
17h 18m 44s
True Declination
0° 00' 00"
Sunlit
Object was in full shadow at epoch
Visualization orbit readout
Latitude
-37.11814°
Longitude
178.6864°
Altitude
530.771 km
Speed
7.595 km/s
Apparent Right ascension
05h 53m 00s
Apparent Declination
-39° 13' 22"
Sunlit
Object is in daylight
Visualization observer readout
Local Sidereal Time
18:55:50
Azimuth
91.765° ESE
Elevation
-77.888°
Doppler factor
1
Orbital elements
Apogee altitude
514.314 km
Perigee altitude
510.008 km
Semi-major axis
6,890.298 km
Eccentricity
0.00031
Inclination
97.5358°
RAAN
259.6874°
Arg. of periapsis
349.619°
True anomaly
Unknown
Mean anomaly
10.4978°
Eccentric anomaly
Unknown
Mean motion
3.79478 °/min
Orbital period
94.87 mins
BSTAR
0.00017745
Loading maneuver chart data...
Loading SW <> Apogee altitude chart data...
Loading historical data...
Loading historical data...
Loading historical data...
Loading historical data...
Loading historical data...
Loading historical data...
Loading historical data...
Other satellites on launch #81 in the year 2024 (2024-05-02 UTC)

LEGION 1 Visibility forecast

Observer location: undefined°, undefined°

Span
Click to sort rows by Start time (UTC) header in descending order
Start Az.
Max El. time (UTC)
Max El. Az.
Max El.
End time (UTC)
End Az.
7 mins2025-07-03 17:51:02.838Z15.378° NNE2025-07-03 17:55:02.838Z164.011° S41.852°2025-07-03 17:58:02.838Z188.175° SSW
4 mins2025-07-04 04:32:02.838Z115.276° SE2025-07-04 04:34:02.838Z60.098° ENE26.509°2025-07-04 04:36:02.838Z17.954° NNE
|